Tracking 18840 objects as of 19-November-2017
HD Live streaming from Space Station
objects crossing your sky now

FENGYUN 1C DEB

Track FENGYUN 1C DEB now!
10-day predictions


NORAD ID: 31427
Int'l Code: 1999-025BTP
Perigee: 771.2 km
Apogee: 847.9 km
Inclination: 98.8 °
Period: 100.9 minutes
Semi major axis: 7180 km
RCS: 0.0039 m2 (small)
Launch date: May 10, 1999
Source: People's Republic of China (PRC)
Launch site: Taiyaun Space Center, China (TSC)

Note: This is SATELLITE DEBRIS
aabbcc
Your satellite tracking list
Your tracking list is empty




NASA's NSSDC Master Catalog

Two Line Element Set (TLE):
1 31427U 99025BTP 17322.64249562 +.00001214 +00000-0 +51172-3 0  9992
2 31427 098.8316 003.3098 0053433 057.2895 069.3561 14.26814255546666
Source of the keplerian elements: AFSPC